Showing default

CYGFM01, 41887

Orbit data source: Space-Track

CYGFM01, 41887 is an American payload satellite in LEO that was launched on Thu, 15 Dec 2016 UTC via a PEGASUS XL launch vehicle from the Pegasus Launch, Eastern Range Air Space (ERAS). Payload-class satellites include a variety of spacecraft equipped with specific instruments for various scientific and technological missions. These include communications satellites like Starlink; space stations such as the ISS; scientific satellites like the Hubble; Earth observation satellites from companies like Planet Labs, Umbra, and HawkEye 360; GPS; miniature CubeSats for education and research; and military/defense satellites.

Loading next visibility...
Identifier
41887, 2016-078D
Orbit
LEO
Last TLE update
23 hours ago
Origin
Manufacturer
SST-US
Mission
Extended mission Civil Science
Bus & Motor
CYGNSS, Unknown motor
Mass
29 kg wet, 29 kg dry
Launch date (UTC)
2016-12-15 (9 years ago)
Launch vehicle
PEGASUS XL
Launch site
Pegasus Launch, Eastern Range Air Space (ERAS)
Object type
Payload
Rocket body
Debris
Shape & HBR
Half Hex Cyl + 2 Pan, 1.7 m
Radar Cross Section
0.450 m², Medium (>0.1 m² and < 1m²)

Expand to show TLE details & history

TLE from 23 hours ago
0 CYGFM01
1 41887U 16078D   25182.92158635  .00010437  00000-0  24246-3 0  9993
2 41887  34.9450  34.4551 0008089  74.8397 285.3217 15.41490347474483
Epoch: 2025-07-01T22:07Z
TLE epoch observation values (Epoch: 2025-07-01T22:07:05.06Z)
Latitude
-0.00001°
Longitude
142.47391°
Altitude
439.149 km
Speed
7.652 km/s
True Right ascension
02h 17m 49s
True Declination
0° 00' 00"
Sunlit
Object was in daylight at epoch
Visualization orbit readout
Latitude
-34.88755°
Longitude
39.19917°
Altitude
456.225 km
Speed
7.637 km/s
Apparent Right ascension
20h 02m 12s
Apparent Declination
-37° 33' 45"
Sunlit
Object is in full shadow
Visualization observer readout
Local Sidereal Time
08:45:13
Azimuth
77.742° E
Elevation
-81.295°
Doppler factor
1
Orbital elements
Apogee altitude
450.514 km
Perigee altitude
439.476 km
Semi-major axis
6,823.132 km
Eccentricity
0.00081
Inclination
34.945°
RAAN
34.4551°
Arg. of periapsis
74.8397°
True anomaly
Unknown
Mean anomaly
285.3217°
Eccentric anomaly
Unknown
Mean motion
3.85095 °/min
Orbital period
93.48 mins
BSTAR
0.00024246
Loading maneuver chart data...
Loading SW <> Apogee altitude chart data...
Loading historical data...
Loading historical data...
Loading historical data...
Loading historical data...
Loading historical data...
Loading historical data...
Loading historical data...

CYGFM01 Visibility forecast

Observer location: undefined°, undefined°

Span
Click to sort rows by Start time (UTC) header in descending order
Start Az.
Max El. time (UTC)
Max El. Az.
Max El.
End time (UTC)
End Az.
5 mins2025-07-02 21:52:06.046Z244.67° WSW2025-07-02 21:54:06.046Z205.809° SW20.669°2025-07-02 21:57:06.046Z143.888° SSE
4 mins2025-07-03 17:55:06.046Z195.684° SSW2025-07-03 17:56:06.046Z171.538° S20.81°2025-07-03 17:59:06.046Z111.261° ESE
4 mins2025-07-03 19:33:06.046Z225.931° WSW2025-07-03 19:34:06.046Z196.947° SSW28.902°2025-07-03 19:37:06.046Z116.674° SE
|